| time (UTC) | temp C | wind direction | speed KPH | gust KPH | rain 1hr cm | rain 24hr cm | rain mn cm | humidity % | barometer mb |
| 20260509135134 | 24 | 210 | 1.6 | 3.2 | 0.00 | 0.00 | 0.00 | 82 | 1008.0 |
| 20260509134630 | 23 | 99 | 1.6 | 1.6 | 0.00 | 0.00 | 0.00 | 84 | 1007.9 |
| 20260509134128 | 23 | 1 | 3.2 | 3.2 | 0.00 | 0.00 | 0.00 | 84 | 1007.9 |
| 20260509133625 | 23 | 345 | 4.8 | 4.8 | 0.00 | 0.00 | 0.00 | 85 | 1007.8 |
| 20260509133122 | 22 | 242 | 3.2 | 3.2 | 0.00 | 0.00 | 0.00 | 87 | 1007.9 |
| 20260509132621 | 22 | 255 | 1.6 | 3.2 | 0.00 | 0.00 | 0.00 | 88 | 1007.8 |
| 20260509132119 | 22 | 310 | 3.2 | 8.0 | 0.00 | 0.00 | 0.00 | 89 | 1007.8 |
| 20260509131614 | 22 | 265 | 4.8 | 12.9 | 0.00 | 0.00 | 0.00 | 89 | 1007.5 |
| 20260509131112 | 21 | 251 | 1.6 | 1.6 | 0.00 | 0.00 | 0.00 | 90 | 1007.9 |
| 20260509130607 | 21 | 240 | 0.0 | 0.0 | 0.00 | 0.00 | 0.00 | 91 | 1007.7 |
| 20260509130104 | 21 | 17 | 3.2 | 3.2 | 0.00 | 0.00 | 0.00 | 92 | 1007.5 |
| 20260509125600 | 21 | 259 | 1.6 | 1.6 | 0.00 | 0.00 | 0.00 | 92 | 1007.4 |
| 20260509125057 | 21 | 229 | 1.6 | 1.6 | 0.00 | 0.00 | 0.00 | 93 | 1007.9 |
| 20260509124554 | 21 | 190 | 3.2 | 3.2 | 0.00 | 0.00 | 0.00 | 93 | 1007.7 |
| 20260509124051 | 20 | 307 | 0.0 | 0.0 | 0.00 | 0.00 | 0.00 | 94 | 1007.5 |
| 20260509123549 | 20 | 222 | 1.6 | 3.2 | 0.00 | 0.00 | 0.00 | 94 | 1007.7 |
| 20260509123045 | 20 | 309 | 0.0 | 1.6 | 0.00 | 0.00 | 0.00 | 94 | 1007.5 |
| 20260509122541 | 20 | 240 | 4.8 | 4.8 | 0.00 | 0.00 | 0.00 | 95 | 1007.7 |
| 20260509122039 | 20 | 29 | 1.6 | 1.6 | 0.00 | 0.00 | 0.00 | 95 | 1007.8 |
| 20260509121535 | 20 | 271 | 3.2 | 4.8 | 0.00 | 0.00 | 0.00 | 95 | 1007.5 |
| 20260509121033 | 20 | 270 | 3.2 | 4.8 | 0.00 | 0.00 | 0.00 | 96 | 1007.4 |
| 20260509120531 | 20 | 239 | 1.6 | 1.6 | 0.00 | 0.00 | 0.00 | 96 | 1007.5 |
| 20260509120029 | 20 | 238 | 0.0 | 1.6 | 0.00 | 0.00 | 0.00 | 96 | 1007.8 |
| 20260509115525 | 20 | 228 | 0.0 | 0.0 | 0.00 | 0.00 | 0.00 | 95 | 1007.5 |
| 20260509115023 | 20 | 251 | 3.2 | 4.8 | 0.00 | 0.00 | 0.00 | 95 | 1007.5 |
| 20260509114521 | 20 | 240 | 0.0 | 1.6 | 0.00 | 0.00 | 0.00 | 95 | 1007.3 |
| 20260509114020 | 20 | 266 | 6.4 | 9.7 | 0.00 | 0.00 | 0.00 | 95 | 1007.2 |
| 20260509113518 | 20 | 284 | 4.8 | 8.0 | 0.00 | 0.00 | 0.00 | 95 | 1007.1 |
| 20260509113015 | 20 | 258 | 0.0 | 0.0 | 0.00 | 0.00 | 0.00 | 95 | 1007.1 |
| 20260509112511 | 20 | 232 | 1.6 | 1.6 | 0.00 | 0.00 | 0.00 | 95 | 1006.8 |
| 20260509112008 | 20 | 351 | 3.2 | 3.2 | 0.00 | 0.00 | 0.00 | 95 | 1006.8 |
| 20260509111506 | 20 | 270 | 0.0 | 1.6 | 0.00 | 0.00 | 0.00 | 95 | 1006.5 |
| 20260509111003 | 20 | 225 | 3.2 | 3.2 | 0.00 | 0.00 | 0.00 | 95 | 1006.3 |
| 20260509110459 | 20 | 225 | 3.2 | 4.8 | 0.00 | 0.00 | 0.00 | 95 | 1006.4 |
| 20260509105956 | 20 | 206 | 0.0 | 0.0 | 0.00 | 0.00 | 0.00 | 95 | 1006.3 |
| 20260509105455 | 20 | 238 | 0.0 | 0.0 | 0.00 | 0.00 | 0.00 | 95 | 1006.0 |
| 20260509104952 | 20 | 245 | 0.0 | 0.0 | 0.00 | 0.00 | 0.00 | 95 | 1006.0 |
| 20260509104449 | 20 | 248 | 0.0 | 0.0 | 0.00 | 0.00 | 0.00 | 95 | 1005.9 |
| 20260509103946 | 20 | 232 | 0.0 | 0.0 | 0.00 | 0.00 | 0.00 | 95 | 1005.7 |
| 20260509103443 | 20 | 230 | 0.0 | 0.0 | 0.00 | 0.00 | 0.00 | 95 | 1005.7 |
| 20260509102941 | 20 | 228 | 0.0 | 0.0 | 0.00 | 0.00 | 0.00 | 95 | 1005.8 |
| 20260509102438 | 20 | 233 | 0.0 | 0.0 | 0.00 | 0.00 | 0.00 | 94 | 1005.6 |
| 20260509101934 | 20 | 235 | 0.0 | 0.0 | 0.00 | 0.00 | 0.00 | 94 | 1005.5 |
| 20260509101431 | 20 | 234 | 0.0 | 0.0 | 0.00 | 0.00 | 0.00 | 94 | 1005.6 |
| 20260509100928 | 20 | 234 | 0.0 | 0.0 | 0.00 | 0.00 | 0.00 | 93 | 1005.9 |
| 20260509100425 | 20 | 237 | 0.0 | 0.0 | 0.00 | 0.00 | 0.00 | 93 | 1005.7 |
| 20260509095922 | 20 | 243 | 0.0 | 0.0 | 0.00 | 0.00 | 0.00 | 93 | 1005.8 |
| 20260509095419 | 21 | 231 | 0.0 | 0.0 | 0.00 | 0.00 | 0.00 | 92 | 1005.6 |
| 20260509094916 | 21 | 217 | 0.0 | 0.0 | 0.00 | 0.00 | 0.00 | 92 | 1005.5 |
| 20260509094413 | 21 | 200 | 0.0 | 0.0 | 0.00 | 0.00 | 0.00 | 92 | 1005.6 |
| 20260509093911 | 21 | 14 | 1.6 | 1.6 | 0.00 | 0.00 | 0.00 | 92 | 1005.4 |
| 20260509093408 | 21 | 234 | 0.0 | 0.0 | 0.00 | 0.00 | 0.00 | 92 | 1005.4 |
| 20260509092906 | 21 | 233 | 0.0 | 1.6 | 0.00 | 0.00 | 0.00 | 92 | 1005.4 |
| 20260509092403 | 21 | 271 | 0.0 | 0.0 | 0.00 | 0.00 | 0.00 | 92 | 1005.2 |
| 20260509091902 | 21 | 229 | 0.0 | 0.0 | 0.00 | 0.00 | 0.00 | 92 | 1005.0 |
| 20260509091358 | 21 | 225 | 0.0 | 0.0 | 0.00 | 0.00 | 0.00 | 91 | 1005.0 |
| 20260509090855 | 21 | 210 | 0.0 | 0.0 | 0.00 | 0.00 | 0.00 | 91 | 1005.4 |
| 20260509090352 | 21 | 220 | 0.0 | 0.0 | 0.00 | 0.00 | 0.00 | 91 | 1005.4 |
| 20260509085850 | 21 | 238 | 1.6 | 1.6 | 0.00 | 0.00 | 0.00 | 91 | 1005.5 |
| 20260509085347 | 21 | 282 | 3.2 | 3.2 | 0.00 | 0.00 | 0.00 | 91 | 1005.6 |
| 20260509084843 | 21 | 208 | 1.6 | 3.2 | 0.00 | 0.00 | 0.00 | 91 | 1004.6 |
| 20260509084340 | 21 | 243 | 0.0 | 1.6 | 0.00 | 0.00 | 0.00 | 91 | 1004.0 |
| 20260509083838 | 21 | 215 | 1.6 | 1.6 | 0.00 | 0.00 | 0.00 | 91 | 1003.6 |
| 20260509083335 | 21 | 310 | 1.6 | 1.6 | 0.00 | 0.00 | 0.00 | 91 | 1003.4 |
| 20260509082831 | 21 | 242 | 0.0 | 1.6 | 0.00 | 0.00 | 0.00 | 91 | 1003.3 |
| 20260509082328 | 21 | 236 | 3.2 | 4.8 | 0.00 | 0.00 | 0.00 | 91 | 1003.6 |
| 20260509081826 | 21 | 308 | 3.2 | 3.2 | 0.00 | 0.00 | 0.00 | 91 | 1003.8 |
| 20260509081322 | 21 | 216 | 3.2 | 3.2 | 0.00 | 0.00 | 0.00 | 91 | 1004.1 |
| 20260509080820 | 21 | 245 | 4.8 | 8.0 | 0.00 | 0.00 | 0.00 | 91 | 1004.2 |
| 20260509080318 | 21 | 233 | 3.2 | 4.8 | 0.00 | 0.00 | 0.00 | 91 | 1004.5 |
| 20260509075816 | 21 | 212 | 4.8 | 8.0 | 0.00 | 0.00 | 0.00 | 91 | 1004.9 |
| 20260509075313 | 21 | 211 | 3.2 | 4.8 | 0.00 | 0.00 | 0.00 | 91 | 1005.2 |
| 20260509074810 | 21 | 195 | 4.8 | 4.8 | 0.00 | 0.00 | 0.00 | 91 | 1005.6 |
| 20260509074308 | 21 | 216 | 1.6 | 3.2 | 0.00 | 0.00 | 0.00 | 91 | 1005.9 |
| 20260509073804 | 21 | 214 | 0.0 | 1.6 | 0.00 | 0.00 | 0.00 | 91 | 1006.4 |
| 20260509073300 | 21 | 7 | 0.0 | 1.6 | 0.00 | 0.00 | 0.00 | 91 | 1006.1 |
| 20260509072757 | 21 | 244 | 3.2 | 3.2 | 0.00 | 0.00 | 0.00 | 92 | 1006.2 |
| 20260509072253 | 21 | 271 | 3.2 | 9.7 | 0.00 | 0.00 | 0.00 | 92 | 1006.5 |
| 20260509071750 | 21 | 239 | 0.0 | 1.6 | 0.00 | 0.00 | 0.00 | 91 | 1006.7 |
| 20260509071247 | 21 | 208 | 1.6 | 1.6 | 0.00 | 0.00 | 0.00 | 91 | 1007.0 |
| 20260509070744 | 21 | 186 | 3.2 | 4.8 | 0.00 | 0.00 | 0.00 | 92 | 1007.0 |
| 20260509070241 | 21 | 221 | 4.8 | 4.8 | 0.00 | 0.00 | 0.00 | 92 | 1006.9 |
| 20260509065737 | 21 | 206 | 1.6 | 1.6 | 0.00 | 0.00 | 0.00 | 92 | 1007.2 |
| 20260509065234 | 21 | 222 | 1.6 | 1.6 | 0.00 | 0.00 | 0.00 | 92 | 1007.3 |
| 20260509064730 | 21 | 226 | 3.2 | 3.2 | 0.00 | 0.00 | 0.00 | 92 | 1007.4 |
| 20260509064228 | 21 | 212 | 0.0 | 0.0 | 0.00 | 0.00 | 0.00 | 92 | 1008.0 |
| 20260509063725 | 21 | 224 | 4.8 | 4.8 | 0.00 | 0.00 | 0.00 | 92 | 1007.9 |
| 20260509063221 | 21 | 260 | 1.6 | 1.6 | 0.00 | 0.00 | 0.00 | 91 | 1007.8 |
| 20260509062718 | 21 | 221 | 0.0 | 0.0 | 0.00 | 0.00 | 0.00 | 91 | 1007.5 |
| 20260509062215 | 21 | 249 | 1.6 | 3.2 | 0.00 | 0.00 | 0.00 | 91 | 1007.7 |
| 20260509061712 | 21 | 236 | 0.0 | 0.0 | 0.00 | 0.00 | 0.00 | 90 | 1007.5 |
| 20260509061210 | 21 | 256 | 0.0 | 1.6 | 0.00 | 0.00 | 0.00 | 90 | 1007.7 |
| 20260509060707 | 21 | 223 | 1.6 | 3.2 | 0.00 | 0.00 | 0.00 | 90 | 1007.3 |
| 20260509060203 | 21 | 208 | 3.2 | 3.2 | 0.00 | 0.00 | 0.00 | 90 | 1007.3 |
| 20260509055659 | 21 | 228 | 0.0 | 1.6 | 0.00 | 0.00 | 0.00 | 90 | 1007.8 |
| 20260509055155 | 21 | 232 | 0.0 | 1.6 | 0.00 | 0.00 | 0.00 | 89 | 1007.3 |
| 20260509054652 | 21 | 231 | 0.0 | 0.0 | 0.00 | 0.00 | 0.00 | 89 | 1007.5 |
| 20260509054149 | 21 | 232 | 0.0 | 0.0 | 0.00 | 0.00 | 0.00 | 89 | 1007.4 |
| 20260509053648 | 21 | 228 | 0.0 | 0.0 | 0.00 | 0.00 | 0.00 | 89 | 1008.1 |
| 20260509053144 | 21 | 230 | 0.0 | 0.0 | 0.00 | 0.00 | 0.00 | 88 | 1008.1 |
| 20260509052642 | 21 | 247 | 0.0 | 0.0 | 0.00 | 0.00 | 0.00 | 88 | 1008.4 |
| 20260509052139 | 21 | 227 | 0.0 | 0.0 | 0.00 | 0.00 | 0.00 | 87 | 1008.5 |
| 20260509051637 | 22 | 241 | 0.0 | 0.0 | 0.00 | 0.00 | 0.00 | 87 | 1008.5 |
| 20260509051134 | 22 | 258 | 1.6 | 1.6 | 0.00 | 0.00 | 0.00 | 87 | 1008.6 |
| 20260509050631 | 22 | 234 | 0.0 | 0.0 | 0.00 | 0.00 | 0.00 | 87 | 1008.7 |
| 20260509050127 | 21 | 225 | 0.0 | 1.6 | 0.00 | 0.00 | 0.00 | 87 | 1008.9 |
| 20260509045625 | 21 | 245 | 0.0 | 1.6 | 0.00 | 1.40 | 1.40 | 87 | 1008.5 |
| 20260509045122 | 21 | 256 | 0.0 | 1.6 | 0.00 | 1.40 | 1.40 | 87 | 1007.9 |
| 20260509044619 | 21 | 246 | 0.0 | 0.0 | 0.00 | 1.40 | 1.40 | 87 | 1007.3 |
| 20260509044116 | 21 | 231 | 0.0 | 0.0 | 0.00 | 1.40 | 1.40 | 87 | 1007.3 |
| 20260509043613 | 21 | 237 | 0.0 | 1.6 | 0.00 | 1.40 | 1.40 | 87 | 1007.3 |
| 20260509043108 | 21 | 215 | 0.0 | 0.0 | 0.00 | 1.40 | 1.40 | 86 | 1007.3 |
| 20260509042605 | 22 | 213 | 0.0 | 0.0 | 0.00 | 1.40 | 1.40 | 86 | 1007.7 |
| 20260509042101 | 22 | 209 | 0.0 | 0.0 | 0.00 | 1.40 | 1.40 | 85 | 1007.4 |
| 20260509041558 | 22 | 191 | 0.0 | 0.0 | 0.00 | 1.40 | 1.40 | 85 | 1007.4 |
| 20260509041055 | 22 | 238 | 1.6 | 1.6 | 0.00 | 1.40 | 1.40 | 85 | 1007.0 |
| 20260509040554 | 22 | 216 | 1.6 | 1.6 | 0.00 | 1.40 | 1.40 | 85 | 1007.0 |
| 20260509040050 | 22 | 235 | 0.0 | 1.6 | 0.00 | 1.40 | 1.40 | 85 | 1007.0 |
| 20260509035547 | 22 | 193 | 0.0 | 1.6 | 0.00 | 1.40 | 1.40 | 85 | 1006.8 |
| 20260509035044 | 22 | 228 | 1.6 | 1.6 | 0.00 | 1.40 | 1.40 | 84 | 1006.8 |
| 20260509034542 | 22 | 234 | 0.0 | 1.6 | 0.00 | 1.40 | 1.40 | 84 | 1006.5 |
| 20260509034039 | 22 | 233 | 0.0 | 1.6 | 0.00 | 1.40 | 1.40 | 84 | 1006.8 |
| 20260509033536 | 22 | 203 | 0.0 | 0.0 | 0.00 | 1.40 | 1.40 | 84 | 1007.2 |
| 20260509033032 | 22 | 192 | 0.0 | 0.0 | 0.00 | 1.40 | 1.40 | 84 | 1007.7 |
| 20260509032530 | 22 | 157 | 0.0 | 1.6 | 0.00 | 1.40 | 1.40 | 83 | 1007.9 |
| 20260509032027 | 22 | 165 | 0.0 | 0.0 | 0.00 | 1.40 | 1.40 | 83 | 1007.8 |
| 20260509031524 | 22 | 63 | 1.6 | 3.2 | 0.00 | 1.40 | 1.40 | 83 | 1007.8 |
| 20260509031021 | 22 | 63 | 1.6 | 1.6 | 0.00 | 1.40 | 1.40 | 83 | 1007.7 |
| 20260509030520 | 22 | 90 | 0.0 | 1.6 | 0.00 | 1.40 | 1.40 | 83 | 1007.5 |
| 20260509030016 | 22 | 168 | 0.0 | 1.6 | 0.00 | 1.40 | 1.40 | 83 | 1007.3 |
| 20260509025512 | 22 | 150 | 4.8 | 8.0 | 0.00 | 1.40 | 1.40 | 82 | 1006.8 |
| 20260509025008 | 22 | 206 | 0.0 | 0.0 | 0.00 | 1.40 | 1.40 | 83 | 1006.8 |
| 20260509024503 | 22 | 213 | 0.0 | 0.0 | 0.00 | 1.40 | 1.40 | 83 | 1006.5 |
| 20260509024000 | 22 | 250 | 0.0 | 1.6 | 0.00 | 1.40 | 1.40 | 83 | 1006.2 |
| 20260509023457 | 22 | 170 | 1.6 | 1.6 | 0.00 | 1.40 | 1.40 | 83 | 1006.4 |
| 20260509022949 | 22 | 186 | 1.6 | 1.6 | 0.00 | 1.40 | 1.40 | 83 | 1006.3 |
| 20260509022446 | 22 | 224 | 3.2 | 4.8 | 0.00 | 1.40 | 1.40 | 83 | 1006.0 |
| 20260509021943 | 22 | 241 | 0.0 | 0.0 | 0.00 | 1.40 | 1.40 | 83 | 1005.7 |
| 20260509021440 | 22 | 202 | 1.6 | 3.2 | 0.00 | 1.40 | 1.40 | 83 | 1005.4 |
| 20260509020938 | 22 | 298 | 1.6 | 4.8 | 0.00 | 1.40 | 1.40 | 82 | 1005.4 |
| 20260509020436 | 22 | 269 | 1.6 | 3.2 | 0.00 | 1.40 | 1.40 | 83 | 1005.5 |
| 20260509015932 | 22 | 280 | 1.6 | 1.6 | 0.00 | 1.40 | 1.40 | 83 | 1005.5 |
| 20260509015431 | 22 | 248 | 3.2 | 3.2 | 0.00 | 1.40 | 1.40 | 82 | 1005.5 |
| 20260509014927 | 22 | 200 | 0.0 | 0.0 | 0.00 | 1.40 | 1.40 | 82 | 1005.6 |
| 20260509014424 | 22 | 206 | 1.6 | 3.2 | 0.00 | 1.40 | 1.40 | 82 | 1005.5 |
| 20260509013920 | 22 | 237 | 0.0 | 1.6 | 0.00 | 1.40 | 1.40 | 82 | 1005.5 |
| 20260509013417 | 22 | 146 | 3.2 | 3.2 | 0.00 | 1.40 | 1.40 | 81 | 1005.7 |
| 20260509012913 | 22 | 246 | 0.0 | 1.6 | 0.00 | 1.40 | 1.40 | 81 | 1005.9 |
| 20260509012410 | 22 | 243 | 0.0 | 1.6 | 0.00 | 1.40 | 1.40 | 81 | 1005.9 |
| 20260509011907 | 22 | 218 | 1.6 | 1.6 | 0.00 | 1.40 | 1.40 | 81 | 1006.0 |
| 20260509011404 | 23 | 197 | 1.6 | 1.6 | 0.00 | 1.40 | 1.40 | 81 | 1005.7 |
| 20260509010903 | 23 | 239 | 0.0 | 0.0 | 0.00 | 1.40 | 1.40 | 81 | 1005.7 |
| 20260509010400 | 22 | 240 | 0.0 | 0.0 | 0.00 | 1.40 | 1.40 | 81 | 1005.9 |
| 20260509005856 | 23 | 195 | 1.6 | 1.6 | 0.00 | 1.40 | 1.40 | 81 | 1005.7 |
| 20260509005354 | 23 | 226 | 0.0 | 0.0 | 0.00 | 1.40 | 1.40 | 81 | 1005.7 |
| 20260509004849 | 23 | 254 | 1.6 | 1.6 | 0.00 | 1.40 | 1.40 | 80 | 1005.6 |
| 20260509004346 | 23 | 252 | 1.6 | 1.6 | 0.00 | 1.40 | 1.40 | 80 | 1005.5 |
| 20260509003843 | 23 | 210 | 1.6 | 3.2 | 0.00 | 1.40 | 1.40 | 79 | 1005.4 |
| 20260509003341 | 23 | 265 | 3.2 | 3.2 | 0.00 | 1.40 | 1.40 | 79 | 1005.2 |
| 20260509002838 | 23 | 195 | 0.0 | 1.6 | 0.00 | 1.40 | 1.40 | 78 | 1005.4 |
| 20260509002336 | 23 | 241 | 3.2 | 3.2 | 0.00 | 1.40 | 1.40 | 78 | 1005.3 |
| 20260509001833 | 23 | 216 | 4.8 | 9.7 | 0.00 | 1.40 | 1.40 | 78 | 1005.3 |
| 20260509001329 | 23 | 259 | 0.0 | 1.6 | 0.00 | 1.40 | 1.40 | 78 | 1005.3 |
| 20260509000826 | 23 | 246 | 1.6 | 3.2 | 0.00 | 1.40 | 1.40 | 77 | 1005.2 |
| 20260509000325 | 23 | 239 | 1.6 | 3.2 | 0.00 | 1.40 | 1.40 | 76 | 1005.2 |
| 20260508235820 | 24 | 233 | 4.8 | 8.0 | 0.00 | 1.40 | 1.40 | 75 | 1005.2 |
| 20260508235317 | 25 | 243 | 4.8 | 8.0 | 0.00 | 1.40 | 1.40 | 74 | 1005.1 |
| 20260508234814 | 24 | 288 | 1.6 | 3.2 | 0.00 | 1.40 | 1.40 | 75 | 1005.5 |
| 20260508234310 | 24 | 346 | 1.6 | 1.6 | 0.00 | 1.40 | 1.40 | 74 | 1005.5 |
| 20260508233809 | 24 | 205 | 0.0 | 0.0 | 0.00 | 1.40 | 1.40 | 75 | 1005.8 |
| 20260508233308 | 24 | 297 | 0.0 | 1.6 | 0.00 | 1.40 | 1.40 | 74 | 1005.5 |
| 20260508232805 | 25 | 244 | 1.6 | 1.6 | 0.00 | 1.40 | 1.40 | 73 | 1005.5 |
| 20260508232301 | 25 | 256 | 1.6 | 1.6 | 0.00 | 1.40 | 1.40 | 72 | 1005.5 |
| 20260508231800 | 25 | 232 | 1.6 | 1.6 | 0.00 | 1.40 | 1.40 | 72 | 1005.7 |
| 20260508231255 | 25 | 183 | 1.6 | 1.6 | 0.00 | 1.40 | 1.40 | 71 | 1005.6 |
| 20260508230752 | 25 | 284 | 0.0 | 1.6 | 0.00 | 1.40 | 1.40 | 71 | 1005.8 |
| 20260508230248 | 25 | 94 | 1.6 | 3.2 | 0.00 | 1.40 | 1.40 | 70 | 1005.7 |
| 20260508225746 | 25 | 233 | 0.0 | 1.6 | 0.00 | 1.40 | 1.40 | 71 | 1005.8 |
| 20260508225242 | 26 | 249 | 0.0 | 1.6 | 0.00 | 1.40 | 1.40 | 69 | 1005.8 |
| 20260508224740 | 25 | 241 | 0.0 | 1.6 | 0.00 | 1.40 | 1.40 | 68 | 1005.8 |
| 20260508224238 | 26 | 32 | 1.6 | 3.2 | 0.00 | 1.40 | 1.40 | 68 | 1005.6 |
| 20260508223736 | 26 | 217 | 3.2 | 3.2 | 0.00 | 1.40 | 1.40 | 69 | 1005.7 |
| 20260508223232 | 26 | 227 | 3.2 | 3.2 | 0.00 | 1.40 | 1.40 | 67 | 1005.6 |
| 20260508222730 | 26 | 238 | 1.6 | 3.2 | 0.00 | 1.40 | 1.40 | 67 | 1005.8 |
| 20260508222227 | 26 | 219 | 1.6 | 4.8 | 0.00 | 1.40 | 1.40 | 67 | 1006.0 |
| 20260508221723 | 26 | 192 | 1.6 | 3.2 | 0.00 | 1.40 | 1.40 | 68 | 1005.8 |
| 20260508221220 | 25 | 223 | 1.6 | 3.2 | 0.00 | 1.40 | 1.40 | 69 | 1005.7 |
| 20260508220716 | 25 | 212 | 3.2 | 3.2 | 0.00 | 1.40 | 1.40 | 68 | 1006.1 |
| 20260508220213 | 25 | 234 | 4.8 | 4.8 | 0.00 | 1.40 | 1.40 | 68 | 1006.0 |
| 20260508215709 | 25 | 4 | 3.2 | 3.2 | 0.00 | 1.40 | 1.40 | 68 | 1005.8 |
| 20260508215205 | 25 | 270 | 1.6 | 3.2 | 0.00 | 1.40 | 1.40 | 68 | 1005.8 |
| 20260508214703 | 26 | 169 | 1.6 | 3.2 | 0.00 | 1.40 | 1.40 | 68 | 1005.8 |
| 20260508214200 | 26 | 356 | 1.6 | 3.2 | 0.00 | 1.40 | 1.40 | 67 | 1005.8 |
| 20260508213656 | 25 | 216 | 1.6 | 3.2 | 0.00 | 1.40 | 1.40 | 68 | 1005.7 |
| 20260508213153 | 26 | 221 | 1.6 | 1.6 | 0.00 | 1.40 | 1.40 | 68 | 1005.9 |
| 20260508212649 | 25 | 327 | 3.2 | 4.8 | 0.00 | 1.40 | 1.40 | 68 | 1005.8 |
| 20260508212146 | 26 | 293 | 3.2 | 4.8 | 0.00 | 1.40 | 1.40 | 68 | 1006.1 |
| 20260508211641 | 26 | 262 | 1.6 | 3.2 | 0.00 | 1.40 | 1.40 | 68 | 1006.0 |
| 20260508211138 | 26 | 358 | 3.2 | 3.2 | 0.00 | 1.40 | 1.40 | 67 | 1006.2 |
| 20260508210634 | 25 | 193 | 1.6 | 3.2 | 0.00 | 1.40 | 1.40 | 67 | 1005.9 |
| 20260508210132 | 25 | 194 | 3.2 | 4.8 | 0.00 | 1.40 | 1.40 | 67 | 1006.1 |
| 20260508205629 | 25 | 152 | 6.4 | 8.0 | 0.00 | 1.40 | 1.40 | 68 | 1006.1 |
| 20260508205125 | 25 | 209 | 0.0 | 1.6 | 0.00 | 1.40 | 1.40 | 70 | 1006.3 |
| 20260508204621 | 25 | 210 | 4.8 | 4.8 | 0.00 | 1.40 | 1.40 | 68 | 1006.4 |
| 20260508204118 | 25 | 35 | 1.6 | 3.2 | 0.00 | 1.40 | 1.40 | 68 | 1006.6 |
| 20260508203614 | 25 | 307 | 3.2 | 4.8 | 0.00 | 1.40 | 1.40 | 69 | 1006.8 |
| 20260508203110 | 23 | 169 | 3.2 | 4.8 | 0.00 | 1.40 | 1.40 | 71 | 1007.5 |
| 20260508202606 | 23 | 189 | 1.6 | 3.2 | 0.00 | 1.40 | 1.40 | 72 | 1007.9 |
| 20260508202104 | 23 | 230 | 3.2 | 3.2 | 0.00 | 1.40 | 1.40 | 71 | 1008.0 |
| 20260508201600 | 23 | 227 | 0.0 | 1.6 | 0.00 | 1.40 | 1.40 | 71 | 1007.9 |
| 20260508201057 | 23 | 238 | 1.6 | 3.2 | 0.00 | 1.40 | 1.40 | 71 | 1008.1 |
| 20260508200554 | 24 | 269 | 1.6 | 1.6 | 0.00 | 1.40 | 1.40 | 71 | 1007.9 |
| 20260508200049 | 24 | 213 | 1.6 | 3.2 | 0.00 | 1.40 | 1.40 | 71 | 1007.8 |
| 20260508195547 | 25 | 214 | 3.2 | 3.2 | 0.00 | 1.40 | 1.40 | 70 | 1008.1 |
| 20260508195043 | 25 | 238 | 1.6 | 1.6 | 0.00 | 1.40 | 1.40 | 71 | 1007.7 |
| 20260508194540 | 25 | 187 | 0.0 | 1.6 | 0.00 | 1.40 | 1.40 | 71 | 1008.0 |
| 20260508194037 | 25 | 192 | 1.6 | 1.6 | 0.00 | 1.40 | 1.40 | 71 | 1008.1 |
| 20260508193533 | 24 | 238 | 1.6 | 1.6 | 0.00 | 1.40 | 1.40 | 71 | 1008.1 |
| 20260508193030 | 24 | 358 | 3.2 | 4.8 | 0.00 | 1.40 | 1.40 | 71 | 1007.9 |
| 20260508192527 | 24 | 239 | 1.6 | 1.6 | 0.00 | 1.40 | 1.40 | 71 | 1008.3 |
| 20260508192025 | 25 | 228 | 0.0 | 0.0 | 0.00 | 1.40 | 1.40 | 70 | 1007.9 |
| 20260508191521 | 25 | 198 | 6.4 | 8.0 | 0.00 | 1.40 | 1.40 | 70 | 1008.1 |
| 20260508191018 | 24 | 237 | 4.8 | 9.7 | 0.00 | 1.40 | 1.40 | 70 | 1008.2 |
| 20260508190515 | 25 | 207 | 1.6 | 3.2 | 0.00 | 1.40 | 1.40 | 69 | 1008.0 |
| 20260508190011 | 25 | 225 | 1.6 | 3.2 | 0.00 | 1.40 | 1.40 | 69 | 1008.1 |
| 20260508185509 | 25 | 220 | 4.8 | 8.0 | 0.00 | 1.40 | 1.40 | 69 | 1008.3 |
| 20260508185007 | 25 | 234 | 1.6 | 3.2 | 0.00 | 1.40 | 1.40 | 67 | 1008.3 |
| 20260508184504 | 26 | 226 | 1.6 | 1.6 | 0.00 | 1.40 | 1.40 | 67 | 1008.3 |
| 20260508184000 | 26 | 133 | 1.6 | 1.6 | 0.00 | 1.40 | 1.40 | 66 | 1008.2 |
| 20260508183456 | 26 | 219 | 3.2 | 3.2 | 0.00 | 1.40 | 1.40 | 65 | 1008.5 |
| 20260508182951 | 26 | 134 | 3.2 | 4.8 | 0.00 | 1.40 | 1.40 | 64 | 1008.4 |
| 20260508182449 | 26 | 39 | 1.6 | 3.2 | 0.00 | 1.40 | 1.40 | 66 | 1008.2 |
| 20260508181944 | 26 | 204 | 1.6 | 3.2 | 0.00 | 1.40 | 1.40 | 67 | 1008.5 |
| 20260508181441 | 26 | 223 | 0.0 | 1.6 | 0.00 | 1.40 | 1.40 | 66 | 1008.7 |
| 20260508180938 | 25 | 227 | 0.0 | 1.6 | 0.00 | 1.40 | 1.40 | 68 | 1008.8 |
| 20260508180435 | 25 | 234 | 3.2 | 3.2 | 0.00 | 1.40 | 1.40 | 67 | 1009.1 |
| 20260508175931 | 25 | 208 | 4.8 | 4.8 | 0.00 | 1.40 | 1.40 | 67 | 1009.2 |
| 20260508175428 | 25 | 103 | 4.8 | 8.0 | 0.00 | 1.40 | 1.40 | 67 | 1009.2 |
| 20260508174926 | 25 | 183 | 1.6 | 1.6 | 0.00 | 1.40 | 1.40 | 68 | 1009.3 |
| 20260508174423 | 25 | 142 | 1.6 | 1.6 | 0.00 | 1.40 | 1.40 | 67 | 1009.2 |
| 20260508173919 | 25 | 122 | 4.8 | 8.0 | 0.00 | 1.40 | 1.40 | 65 | 1009.4 |
| 20260508173417 | 25 | 324 | 3.2 | 3.2 | 0.00 | 1.40 | 1.40 | 67 | 1009.4 |
| 20260508172912 | 25 | 202 | 0.0 | 1.6 | 0.00 | 1.40 | 1.40 | 68 | 1009.6 |
| 20260508172410 | 24 | 354 | 1.6 | 3.2 | 0.00 | 1.40 | 1.40 | 68 | 1009.6 |
| 20260508171906 | 23 | 167 | 3.2 | 3.2 | 0.00 | 1.40 | 1.40 | 67 | 1009.4 |
| 20260508171403 | 23 | 251 | 0.0 | 1.6 | 0.00 | 1.40 | 1.40 | 68 | 1009.4 |
| 20260508170859 | 23 | 135 | 4.8 | 8.0 | 0.00 | 1.40 | 1.40 | 67 | 1009.4 |
| 20260508170357 | 23 | 146 | 1.6 | 4.8 | 0.00 | 1.40 | 1.40 | 67 | 1009.9 |
| 20260508165853 | 23 | 216 | 1.6 | 3.2 | 0.00 | 1.40 | 1.40 | 68 | 1010.2 |
| 20260508165351 | 23 | 244 | 1.6 | 1.6 | 0.00 | 1.40 | 1.40 | 69 | 1010.3 |
| 20260508164847 | 22 | 209 | 1.6 | 1.6 | 0.00 | 1.40 | 1.40 | 71 | 1010.1 |
| 20260508164344 | 22 | 24 | 1.6 | 1.6 | 0.00 | 1.40 | 1.40 | 70 | 1010.4 |
| 20260508163841 | 22 | 185 | 0.0 | 1.6 | 0.00 | 1.40 | 1.40 | 70 | 1010.5 |
| 20260508163339 | 22 | 192 | 1.6 | 3.2 | 0.00 | 1.40 | 1.40 | 71 | 1010.6 |
| 20260508162834 | 22 | 233 | 4.8 | 4.8 | 0.00 | 1.40 | 1.40 | 68 | 1010.8 |
| 20260508162332 | 22 | 28 | 1.6 | 1.6 | 0.00 | 1.40 | 1.40 | 71 | 1010.9 |
| 20260508161829 | 22 | 125 | 1.6 | 3.2 | 0.00 | 1.40 | 1.40 | 69 | 1010.9 |
| 20260508161326 | 22 | 15 | 3.2 | 3.2 | 0.00 | 1.40 | 1.40 | 71 | 1010.9 |
| 20260508160823 | 22 | 173 | 0.0 | 0.0 | 0.00 | 1.40 | 1.40 | 73 | 1011.1 |
| 20260508160322 | 21 | 235 | 0.0 | 1.6 | 0.00 | 1.40 | 1.40 | 74 | 1011.1 |
| 20260508155818 | 21 | 171 | 1.6 | 1.6 | 0.00 | 1.40 | 1.40 | 74 | 1011.3 |
| 20260508155315 | 20 | 202 | 0.0 | 0.0 | 0.00 | 1.40 | 1.40 | 75 | 1011.2 |
| 20260508154812 | 20 | 249 | 1.6 | 1.6 | 0.00 | 1.40 | 1.40 | 75 | 1011.1 |
| 20260508154310 | 20 | 268 | 1.6 | 1.6 | 0.00 | 1.40 | 1.40 | 76 | 1011.5 |
| 20260508153806 | 20 | 239 | 0.0 | 0.0 | 0.00 | 1.40 | 1.40 | 76 | 1011.2 |
| 20260508153304 | 20 | 165 | 1.6 | 3.2 | 0.00 | 1.40 | 1.40 | 77 | 1011.4 |
| 20260508152759 | 20 | 147 | 1.6 | 1.6 | 0.00 | 1.40 | 1.40 | 78 | 1011.3 |
| 20260508152256 | 20 | 266 | 1.6 | 1.6 | 0.00 | 1.40 | 1.40 | 80 | 1011.5 |
| 20260508151752 | 19 | 321 | 1.6 | 1.6 | 0.00 | 1.40 | 1.40 | 79 | 1011.3 |
| 20260508151249 | 19 | 239 | 0.0 | 0.0 | 0.00 | 1.40 | 1.40 | 82 | 1011.4 |
| 20260508150745 | 18 | 245 | 1.6 | 1.6 | 0.00 | 1.40 | 1.40 | 83 | 1011.7 |
| 20260508150242 | 18 | 201 | 0.0 | 0.0 | 0.00 | 1.40 | 1.40 | 87 | 1011.5 |
| 20260508145738 | 17 | 354 | 0.0 | 1.6 | 0.00 | 1.40 | 1.40 | 90 | 1011.5 |
| 20260508145235 | 17 | 219 | 0.0 | 0.0 | 0.00 | 1.40 | 1.40 | 93 | 1011.5 |
| 20260508144731 | 17 | 194 | 0.0 | 1.6 | 0.00 | 1.40 | 1.40 | 95 | 1011.5 |
| 20260508144230 | 17 | 213 | 0.0 | 1.6 | 0.00 | 1.40 | 1.40 | 96 | 1011.7 |
| 20260508143727 | 17 | 198 | 0.0 | 0.0 | 0.00 | 1.40 | 1.40 | 96 | 1011.6 |
| 20260508143224 | 17 | 106 | 0.0 | 1.6 | 0.00 | 1.40 | 1.40 | 97 | 1012.1 |
| 20260508142720 | 16 | 250 | 1.6 | 1.6 | 0.00 | 1.40 | 1.40 | 97 | 1011.8 |
| 20260508142217 | 16 | 181 | 0.0 | 0.0 | 0.00 | 1.40 | 1.40 | 97 | 1011.8 |
| 20260508141714 | 16 | 242 | 0.0 | 0.0 | 0.00 | 1.40 | 1.40 | 98 | 1012.0 |
| 20260508141211 | 16 | 150 | 0.0 | 1.6 | 0.00 | 1.40 | 1.40 | 98 | 1012.1 |
| 20260508140708 | 16 | 215 | 0.0 | 0.0 | 0.00 | 1.40 | 1.40 | 98 | 1012.1 |
| 20260508140205 | 16 | 269 | 0.0 | 0.0 | 0.00 | 1.40 | 1.40 | 98 | 1011.7 |
| 20260508135701 | 16 | 235 | 0.0 | 0.0 | 0.00 | 1.40 | 1.40 | 98 | 1011.9 |